User: anonymous   Login
Location: Unspecified
(0.0000°N, 0.0000°E)
Time: 01:24:15
(UTC+02:00)
Language:

Ariane 42L R/B - Orbit

View from above orbital plane
View from above orbital plane
View from above satellite
View from above satellite

Ground track
Ground track

The orbit data is extracted from the following two-line orbital elements,

1 26299U 00020B   16238.25296233  .00003090  00000-0  68219-3 0  9993
2 26299   7.3968 198.5496 5954718  89.8525 334.0231  4.10469928206918
Epoch (UTC): 25 August 2016 06:04:15
Eccentricity: 0.5954718
inclination: 7.3968°
perigee height: 287 km
apogee height: 19910 km
right ascension of ascending node: 198.5496°
argument of perigee: 89.8525°
revolutions per day: 4.10469928
mean anomaly at epoch: 334.0231°
orbit number at epoch: 20691

The dashed part of the orbit path shows where the satellite is in the earth's shadow,  

DLR